Location: Wilsall
(45.9940°N, 110.6590°W)
Time: 19:39:51
(UTC-06:00)

Daily predictions for brighter satellites

Satellite Brightness Start Highest point End
(mag) Time Altitude Azimuth Time Altitude Azimuth Time Altitude Azimuth
H-2A R/B 4.1 21:23:13 10° E 21:25:37 13° NE 21:28:00 10° NNE
Cosmos 1606 2.8 21:24:05 10° N 21:28:02 89° W 21:31:58 10° S
Cosmos 2297 4.5 21:23:10 10° SSE 21:28:07 32° ESE 21:33:08 10° NE
Okean 2 Rocket 3.7 21:27:37 10° SSE 21:31:40 36° E 21:35:43 10° NNE
SL-8 R/B 4.1 21:27:10 10° W 21:32:00 69° N 21:36:49 10° ENE
Cosmos 2084 3.2 21:29:30 10° SW 21:33:20 86° NW 21:37:12 10° NE
CZ-4 DEB 3.5 21:31:08 10° S 21:34:14 54° W 21:37:22 10° NNW
Cosmos 1242 Rocket 3.1 21:31:24 10° N 21:34:56 44° ENE 21:38:30 10° SSE
Cosmos 1782 Rocket 3.9 21:31:57 10° SSE 21:36:15 50° E 21:40:36 10° NNE
USA 186 4.0 21:35:02 10° SSW 21:37:52 27° W 21:40:48 10° NW
COS B Rocket 3.2 21:35:23 10° N 21:39:20 64° E 21:42:50 10° S
Intercosmos 25 4.0 21:38:32 10° SSE 21:41:22 26° E 21:44:07 10° NNE
Cosmos 1850 Rocket 4.1 21:38:49 10° NNW 21:44:09 70° ENE 21:49:29 10° SSE
Cosmos 1862 3.4 21:40:30 10° S 21:44:34 89° E 21:48:41 10° N
ALOS 4.3 21:41:50 10° SSW 21:45:51 28° W 21:49:54 10° NW
Sich 1 Rocket 4.3 21:42:17 10° SSW 21:46:49 62° WNW 21:51:22 10° N
USA 229 DEB 4.0 21:40:35 10° NW 21:47:41 69° NE 21:54:27 12° SE
EO 1 Delta rocket 4.2 21:41:43 10° NNE 21:47:44 68° E 21:52:38 10° S
USA 229 4.0 21:40:41 10° NW 21:47:47 68° NE 21:54:33 12° SE
Cosmos 1975 Rocket 3.0 21:43:49 10° N 21:48:10 76° E 21:52:30 10° SSE
YAOGAN 6 3.4 21:45:16 11° SE 21:48:18 34° ENE 21:51:34 10° N
Lacrosse 5 rocket 2.9 21:47:52 10° SSE 21:49:45 13° ESE 21:51:36 10° E
Cosmos 1408 2.6 21:47:17 10° S 21:50:56 88° WNW 21:54:35 10° N
PSLV R/B 3.7 21:48:39 12° SE 21:51:05 38° ENE 21:53:52 10° N
Nadezhda 3 Rocket 4.3 21:47:27 10° NNW 21:53:49 74° W 22:00:09 10° S
AVUM R/B 4.2 21:51:29 10° NNW 21:54:48 39° NE 21:57:23 15° ESE
ARGOS 3.8 21:50:37 11° SE 21:55:16 39° ENE 22:00:12 10° N
Cosmos 1378 Rocket 4.1 21:51:46 10° NNW 21:56:01 58° W 22:00:15 10° S
DNEPR-1 R/B 4.2 21:50:48 10° NW 21:56:12 61° WSW 22:00:37 10° SSE
CZ-4 SHROUD 3.6 21:56:08 14° SE 21:58:35 47° ENE 22:01:35 10° N
Cosmos 2218 Rocket 4.4 21:54:18 10° SSE 22:00:21 47° E 22:06:25 10° NNE
Cosmos 1908 Rocket 4.4 21:56:20 10° SSW 22:00:40 55° WNW 22:05:04 10° N
Cosmos 1536 Rocket 4.4 21:56:53 10° N 22:01:01 35° ENE 22:04:12 15° SE
Gbstr 26 Del rocket 3.6 22:00:34 10° WNW 22:06:06 66° NNE 22:10:03 13° ESE
Cosmos 1741 Rocket 4.1 22:01:11 10° NNW 22:06:26 80° WSW 22:11:26 11° SSE
Cosmos 1727 Rocket 4.3 22:04:21 10° N 22:10:20 48° ENE 22:15:11 16° SE
Nimbus 7 Rocket 4.4 22:06:03 10° NNE 22:12:02 83° ESE 22:18:03 10° SSW
Cosmos 1825 3.4 22:11:24 10° SSW 22:15:05 44° WNW 22:18:46 10° N
deb Chang Zheng 4 4.0 22:13:10 10° N 22:17:35 69° WNW 22:22:00 10° SSW
MetOp-A 4.2 22:12:39 11° SSE 22:17:52 86° WSW 22:23:16 10° NNW
Cosmos 614 Rocket 4.2 22:13:28 10° NNW 22:18:32 68° WSW 22:23:01 13° S
Envisat 3.8 22:16:38 10° S 22:21:32 49° W 22:26:29 10° NNW
ISS -2.3 22:19:01 10° W 22:22:11 48° NNW 22:25:22 10° ENE
Cosmos 1833 Rocket 2.7 22:16:55 10° NNW 22:22:35 85° ENE 22:26:48 18° SSE
Terra 2.9 22:23:26 18° ESE 22:26:04 30° ENE 22:30:12 10° N
USA 245 3.3 22:23:58 20° SSE 22:26:26 79° ENE 22:31:03 10° N
H-2A R/B 3.3 22:24:51 10° SSW 22:28:48 37° W 22:32:43 10° NNW
Abrixas 2.9 22:26:39 10° SW 22:29:31 39° SSE 22:30:25 30° ESE
SL-8 Rocket 4.0 22:25:00 10° S 22:31:16 89° W 22:37:33 10° N
Cosmos 2278 Rocket 3.3 22:27:46 10° SW 22:33:14 47° WNW 22:38:43 10° NNE
NOSS 3-1 (C) 4.3 22:27:02 10° NW 22:34:19 60° NE 22:40:24 19° ESE
Cosmos 2151 Rocket 3.6 22:34:16 13° S 22:38:21 83° E 22:42:55 10° N
Timation 1 Rocket 4.4 22:35:39 10° S 22:41:31 60° ESE 22:47:26 10° NE
Cosmos 1300 Rocket 4.1 22:41:48 27° SE 22:43:32 40° E 22:47:42 10° NNE
CZ-4B R/B 3.3 22:39:15 10° NNE 22:44:12 75° ESE 22:48:15 15° S
Okean 1 3.6 22:40:44 10° N 22:44:45 54° ENE 22:46:23 32° SE
USA 234 4.3 22:40:54 10° ENE 22:45:23 21° ESE 22:45:23 21° ESE
Meteor 1-25 Rocket 4.3 22:40:49 14° S 22:45:52 71° E 22:51:40 10° NNE
Cosmos 1486 Rocket 4.3 22:41:36 10° NNW 22:46:53 57° ENE 22:49:39 27° SE
SPOT 5 4.1 22:42:19 10° SSW 22:47:21 42° W 22:52:27 10° NNW
Cosmos 1812 2.7 22:44:57 10° N 22:48:50 72° E 22:50:23 34° SSE
Cosmos 2082 Rocket 2.9 22:45:11 10° NW 22:50:38 48° WSW 22:54:41 17° S
Okean 1 Rocket 3.6 22:51:04 31° SE 22:52:34 43° E 22:56:47 10° NNE
Genesis I 3.8 22:56:02 36° ESE 22:56:03 36° ESE 22:59:46 10° NE
Lacrosse 5 2.1 22:54:27 10° SSW 22:59:15 43° SE 23:04:05 10° ENE
CZ-3C R/B 4.5 23:01:28 10° SW 23:03:12 10° SSW 23:04:38 10° SSW
H-2A R/B 2.1 23:01:28 30° SSE 23:04:13 78° ENE 23:09:30 10° NNW
Okean 1-7 Rocket 3.5 23:06:25 10° N 23:10:55 75° E 23:12:23 42° SSE
Cosmos 2366 rocket 4.5 23:07:25 10° SSW 23:13:38 61° WNW 23:19:57 10° N
Cosmos 1302 Rocket 4.1 23:12:32 33° SSE 23:14:42 57° ESE 23:19:54 10° NNE
SL-8 R/B 3.8 23:10:01 10° WNW 23:14:51 75° NNE 23:17:31 26° E
BREEZE-M DEB (TANK) 4.2 23:08:48 10° WNW 23:16:34 27° WSW 23:18:15 21° SSW
Cosmos 1633 3.9 23:19:12 27° ENE 23:19:12 27° ENE 23:21:57 10° NNE
ASTEX 1 3.4 23:17:25 10° NNE 23:22:22 65° E 23:23:57 42° SSE
Meteor 1-13 Rocket 4.3 23:17:38 10° N 23:23:38 87° E 23:26:19 35° SSE
Cosmos 1315 Rocket 4.1 23:26:58 27° ENE 23:26:58 27° ENE 23:29:48 10° NNE
Iridium 4 Rocket 4.1 23:21:23 10° N 23:27:13 54° E 23:29:11 38° SE
CARTOSAT-1 3.7 23:26:57 43° S 23:28:14 69° WSW 23:32:33 10° NNW
Lacrosse 5 rocket 1.0 23:24:36 10° SW 23:28:29 88° NW 23:32:15 10° NE
Cosmos 2084 Rocket 3.4 23:32:06 10° NW 23:35:59 64° NE 23:36:30 57° E
Cosmos 2369 Rocket 2.4 23:37:36 43° SE 23:38:41 49° ESE 23:44:06 10° NE
Meteor 1-11 Rocket 3.7 23:38:45 38° S 23:41:09 81° E 23:46:54 10° NNE
Okean 2 3.9 23:41:59 10° N 23:46:02 46° ENE 23:46:11 46° E
SAR-Lupe-2 3.6 23:46:11 68° WSW 23:46:11 68° WSW 23:49:46 10° NNW
IGS 5A 4.0 23:45:34 42° SW 23:46:25 49° W 23:50:28 10° NNW
Cosmos 2239 Rocket 4.5 23:49:37 36° S 23:52:25 89° W 23:58:46 10° N
Gbstr 26 Del rocket 4.0 23:48:23 10° WNW 23:52:37 33° SW 23:52:37 33° SW
Cosmos 1892 Rocket 3.5 23:49:15 10° N 23:53:38 69° E 23:53:58 66° ESE
CZ-4B R/B 3.9 23:57:03 13° NE 23:57:03 13° NE 23:58:11 10° NNE
